EZY515T EGPH-EGAA

Flight info

Callsign EZY515T
Flight time 0h 33m
Altitude 18000
Route GOSAM1D GOSAM P600 BLACA DCT BELZU DCT
Aircraft A20N/M-SDE2E3FGHIRWXY/LB1

Departure

Time 2026-04-23 15:27
Airport Edinburgh Airport (EGPH)

Arrival

Time 2026-04-23 16:00
Airport Belfast International Airport (EGAA)
Time Latitude Longitude Altitude Speed Heading
2026-04-23 15:05 55.94940 -3.36356 109 ft 0 kts 148°
2026-04-23 15:15 55.94956 -3.36374 106 ft 3 kts 148°
2026-04-23 15:16 55.94976 -3.36393 97 ft 3 kts 161°
2026-04-23 15:16 55.94997 -3.36401 111 ft 3 kts 187°
2026-04-23 15:16 55.95016 -3.36389 108 ft 3 kts 231°
2026-04-23 15:16 55.95022 -3.36375 109 ft 1 kts 239°
2026-04-23 15:17 55.95022 -3.36374 109 ft 0 kts 239°
2026-04-23 15:21 55.95022 -3.36375 109 ft 0 kts 239°
2026-04-23 15:22 55.94999 -3.36443 111 ft 12 kts 240°
2026-04-23 15:22 55.94947 -3.36594 108 ft 14 kts 239°
2026-04-23 15:22 55.94899 -3.36738 109 ft 13 kts 244°
2026-04-23 15:22 55.94926 -3.36868 108 ft 10 kts 273°
2026-04-23 15:23 55.94896 -3.36983 107 ft 11 kts 238°
2026-04-23 15:23 55.94848 -3.37123 108 ft 16 kts 239°
2026-04-23 15:23 55.94781 -3.37321 110 ft 20 kts 238°
2026-04-23 15:23 55.94716 -3.37514 112 ft 17 kts 238°
2026-04-23 15:24 55.94656 -3.37685 114 ft 15 kts 238°
2026-04-23 15:24 55.94596 -3.37866 113 ft 21 kts 239°
2026-04-23 15:24 55.94521 -3.38084 113 ft 19 kts 238°
2026-04-23 15:24 55.94453 -3.38291 114 ft 18 kts 238°
2026-04-23 15:25 55.94389 -3.38478 116 ft 17 kts 238°
2026-04-23 15:25 55.94335 -3.38638 118 ft 13 kts 239°
2026-04-23 15:25 55.94304 -3.38729 119 ft 13 kts 238°
2026-04-23 15:25 55.94320 -3.38903 121 ft 15 kts 328°
2026-04-23 15:26 55.94413 -3.38964 117 ft 12 kts 21°
2026-04-23 15:26 55.94424 -3.38943 118 ft 0 kts 60°
2026-04-23 15:26 55.94427 -3.38932 121 ft 5 kts 61°
2026-04-23 15:26 55.94557 -3.38544 117 ft 74 kts 58°
2026-04-23 15:27 55.94944 -3.37406 116 ft 138 kts 58°
2026-04-23 15:27 55.95453 -3.35895 708 ft 139 kts 61°
2026-04-23 15:27 55.95933 -3.34431 1505 ft 142 kts 60°
2026-04-23 15:27 55.96670 -3.32962 1893 ft 176 kts 44°
2026-04-23 15:28 55.97726 -3.31507 2325 ft 203 kts 38°
2026-04-23 15:28 55.98957 -3.29911 2697 ft 236 kts 37°
2026-04-23 15:28 56.00518 -3.28675 3424 ft 257 kts 11°
2026-04-23 15:28 56.02311 -3.29136 4360 ft 268 kts 333°
2026-04-23 15:29 56.03683 -3.31353 5271 ft 269 kts 299°
2026-04-23 15:29 56.04177 -3.34559 5804 ft 271 kts 266°
2026-04-23 15:29 56.03679 -3.37747 5982 ft 267 kts 242°
2026-04-23 15:29 56.02894 -3.40739 6047 ft 270 kts 244°
2026-04-23 15:30 56.02205 -3.43902 6399 ft 275 kts 247°
2026-04-23 15:30 56.01602 -3.47146 6505 ft 275 kts 250°
2026-04-23 15:30 56.01054 -3.50431 6509 ft 275 kts 252°
2026-04-23 15:30 56.00539 -3.53734 6803 ft 277 kts 252°
2026-04-23 15:31 56.00037 -3.57074 7691 ft 279 kts 253°
2026-04-23 15:31 55.99541 -3.60417 8774 ft 278 kts 251°
2026-04-23 15:31 55.99044 -3.63769 9822 ft 280 kts 252°
2026-04-23 15:31 55.98551 -3.67101 10756 ft 284 kts 251°
2026-04-23 15:32 55.98025 -3.70638 11240 ft 305 kts 253°
2026-04-23 15:32 55.97456 -3.74461 11610 ft 329 kts 253°
2026-04-23 15:32 55.96856 -3.78509 12182 ft 343 kts 253°
2026-04-23 15:32 55.96241 -3.82674 13009 ft 350 kts 253°
2026-04-23 15:33 55.95623 -3.86852 13886 ft 355 kts 252°
2026-04-23 15:33 55.94984 -3.91145 14710 ft 360 kts 253°
2026-04-23 15:33 55.94325 -3.95480 15515 ft 364 kts 252°
2026-04-23 15:33 55.93418 -3.99720 16310 ft 366 kts 240°
2026-04-23 15:34 55.92051 -4.03545 17144 ft 366 kts 229°
2026-04-23 15:34 55.90245 -4.06750 17915 ft 368 kts 217°
2026-04-23 15:34 55.88144 -4.09423 18377 ft 374 kts 212°
2026-04-23 15:34 55.85955 -4.11954 18478 ft 374 kts 211°
2026-04-23 15:35 55.83771 -4.14446 18479 ft 372 kts 212°
2026-04-23 15:35 55.81588 -4.16946 18475 ft 374 kts 212°
2026-04-23 15:35 55.79403 -4.19461 18481 ft 374 kts 212°
2026-04-23 15:35 55.77266 -4.22004 18478 ft 373 kts 213°
2026-04-23 15:36 55.75131 -4.24622 18480 ft 373 kts 214°
2026-04-23 15:36 55.72998 -4.27278 18476 ft 375 kts 213°
2026-04-23 15:36 55.70869 -4.29942 18477 ft 374 kts 214°
2026-04-23 15:36 55.68746 -4.32594 18470 ft 374 kts 214°
2026-04-23 15:37 55.66616 -4.35246 18469 ft 375 kts 214°
2026-04-23 15:37 55.64482 -4.37892 18465 ft 375 kts 214°
2026-04-23 15:37 55.62346 -4.40534 18462 ft 373 kts 214°
2026-04-23 15:37 55.60216 -4.43158 18459 ft 374 kts 213°
2026-04-23 15:38 55.58078 -4.45786 18459 ft 374 kts 214°
2026-04-23 15:38 55.55935 -4.48417 18450 ft 375 kts 213°
2026-04-23 15:38 55.53789 -4.51050 18427 ft 375 kts 213°
2026-04-23 15:38 55.51640 -4.53682 18430 ft 376 kts 214°
2026-04-23 15:39 55.49516 -4.56282 18431 ft 376 kts 214°
2026-04-23 15:39 55.47364 -4.58912 18427 ft 375 kts 213°
2026-04-23 15:39 55.45215 -4.61536 18427 ft 376 kts 214°
2026-04-23 15:39 55.43064 -4.64158 18424 ft 376 kts 213°
2026-04-23 15:40 55.40912 -4.66778 18430 ft 377 kts 213°
2026-04-23 15:40 55.38754 -4.69400 18430 ft 377 kts 213°
2026-04-23 15:40 55.36593 -4.72023 18426 ft 377 kts 213°
2026-04-23 15:40 55.34430 -4.74646 18426 ft 377 kts 213°
2026-04-23 15:41 55.32259 -4.77222 18427 ft 376 kts 210°
2026-04-23 15:41 55.29983 -4.79493 18428 ft 376 kts 208°
2026-04-23 15:41 55.27673 -4.81653 18427 ft 376 kts 206°
2026-04-23 15:41 55.25347 -4.83742 18425 ft 376 kts 206°
2026-04-23 15:42 55.23031 -4.85774 18422 ft 376 kts 206°
2026-04-23 15:42 55.20682 -4.87816 18418 ft 376 kts 205°
2026-04-23 15:42 55.18342 -4.89845 18419 ft 375 kts 205°
2026-04-23 15:42 55.16001 -4.91878 18406 ft 375 kts 205°
2026-04-23 15:43 55.13652 -4.93920 18340 ft 379 kts 205°
2026-04-23 15:43 55.11283 -4.95983 18096 ft 382 kts 205°
2026-04-23 15:43 55.08904 -4.98055 17823 ft 382 kts 205°
2026-04-23 15:43 55.06534 -5.00120 17560 ft 380 kts 205°
2026-04-23 15:44 55.04174 -5.02174 17295 ft 378 kts 205°
2026-04-23 15:44 55.01824 -5.04217 17042 ft 376 kts 205°
2026-04-23 15:44 54.99484 -5.06248 16776 ft 374 kts 205°
2026-04-23 15:44 54.97161 -5.08261 16513 ft 372 kts 205°
2026-04-23 15:45 54.94846 -5.10264 16271 ft 370 kts 205°
2026-04-23 15:45 54.92574 -5.12229 16021 ft 368 kts 205°
2026-04-23 15:45 54.90394 -5.14565 15768 ft 368 kts 216°
2026-04-23 15:45 54.88573 -5.17676 15523 ft 369 kts 230°
2026-04-23 15:46 54.87249 -5.21496 15284 ft 370 kts 240°
2026-04-23 15:46 54.86206 -5.25575 15035 ft 370 kts 245°
2026-04-23 15:46 54.85317 -5.29740 14632 ft 365 kts 247°
2026-04-23 15:46 54.84502 -5.33923 14007 ft 364 kts 248°
2026-04-23 15:47 54.83711 -5.38097 13334 ft 363 kts 248°
2026-04-23 15:47 54.82919 -5.42233 12741 ft 360 kts 248°
2026-04-23 15:47 54.82127 -5.46283 12160 ft 358 kts 247°
2026-04-23 15:47 54.81311 -5.50362 11537 ft 357 kts 247°
2026-04-23 15:48 54.80489 -5.54405 11182 ft 348 kts 246°
2026-04-23 15:48 54.79701 -5.58257 11106 ft 331 kts 246°
2026-04-23 15:48 54.78946 -5.61935 11009 ft 316 kts 246°
2026-04-23 15:48 54.78223 -5.65443 10882 ft 303 kts 246°
2026-04-23 15:49 54.77516 -5.68850 10533 ft 299 kts 245°
2026-04-23 15:49 54.76812 -5.72209 10054 ft 301 kts 245°
2026-04-23 15:49 54.76099 -5.75601 9638 ft 298 kts 245°
2026-04-23 15:49 54.75394 -5.78970 9229 ft 296 kts 246°
2026-04-23 15:50 54.74930 -5.81187 8964 ft 295 kts 245°
2026-04-23 15:50 54.74000 -5.85634 8425 ft 292 kts 245°
2026-04-23 15:50 54.73309 -5.88935 8028 ft 290 kts 245°
2026-04-23 15:50 54.72623 -5.92209 7637 ft 288 kts 245°
2026-04-23 15:51 54.71940 -5.95463 7248 ft 286 kts 245°
2026-04-23 15:51 54.71262 -5.98691 6860 ft 285 kts 245°
2026-04-23 15:51 54.70594 -6.01864 6459 ft 283 kts 245°
2026-04-23 15:51 54.69921 -6.05055 6069 ft 281 kts 245°
2026-04-23 15:52 54.69255 -6.08209 5694 ft 278 kts 245°
2026-04-23 15:52 54.68593 -6.11336 5315 ft 275 kts 245°
2026-04-23 15:52 54.67938 -6.14429 4933 ft 273 kts 245°
2026-04-23 15:52 54.67498 -6.17622 4562 ft 277 kts 261°
2026-04-23 15:53 54.67697 -6.20953 3987 ft 284 kts 287°
2026-04-23 15:53 54.68758 -6.23812 3446 ft 286 kts 320°
2026-04-23 15:53 54.70459 -6.25491 3012 ft 280 kts 342°
2026-04-23 15:53 54.72261 -6.26579 2654 ft 277 kts 346°
2026-04-23 15:54 54.74095 -6.27588 2453 ft 269 kts 347°
2026-04-23 15:54 54.75838 -6.28547 2474 ft 255 kts 347°
2026-04-23 15:54 54.77450 -6.29446 2484 ft 240 kts 348°
2026-04-23 15:54 54.78982 -6.30391 2477 ft 229 kts 338°
2026-04-23 15:55 54.80157 -6.32244 2484 ft 232 kts 296°
2026-04-23 15:55 54.80389 -6.34921 2498 ft 225 kts 250°
2026-04-23 15:55 54.79618 -6.37051 2492 ft 205 kts 205°
2026-04-23 15:55 54.78346 -6.37740 2501 ft 188 kts 171°
2026-04-23 15:56 54.77131 -6.37159 2492 ft 178 kts 143°
2026-04-23 15:56 54.76305 -6.35648 2495 ft 173 kts 116°
2026-04-23 15:56 54.76045 -6.33630 2499 ft 176 kts 90°
2026-04-23 15:56 54.76239 -6.31525 2816 ft 179 kts 86°
2026-04-23 15:57 54.76035 -6.29504 2939 ft 171 kts 124°
2026-04-23 15:57 54.75137 -6.28174 2476 ft 175 kts 146°
2026-04-23 15:57 54.73970 -6.27445 1944 ft 178 kts 157°
2026-04-23 15:57 54.72836 -6.26836 1664 ft 164 kts 155°
2026-04-23 15:58 54.71824 -6.26255 1531 ft 143 kts 155°
2026-04-23 15:58 54.70915 -6.25741 1339 ft 134 kts 154°
2026-04-23 15:58 54.70037 -6.25245 1157 ft 130 kts 155°
2026-04-23 15:58 54.69183 -6.24765 1007 ft 127 kts 154°
2026-04-23 15:59 54.68337 -6.24291 798 ft 128 kts 154°
2026-04-23 15:59 54.67507 -6.23842 629 ft 121 kts 154°
2026-04-23 15:59 54.66713 -6.23404 467 ft 120 kts 154°
2026-04-23 15:59 54.65925 -6.22937 288 ft 120 kts 156°
2026-04-23 16:00 54.65163 -6.22505 233 ft 101 kts 162°
2026-04-23 16:00 54.64600 -6.22190 251 ft 70 kts 162°
2026-04-23 16:00 54.64314 -6.22033 261 ft 15 kts 161°
2026-04-23 16:00 54.64271 -6.22007 264 ft 0 kts 158°
2026-04-23 16:01 54.64227 -6.21921 266 ft 11 kts 147°
2026-04-23 16:01 54.64208 -6.21968 267 ft 8 kts 306°
2026-04-23 16:01 54.64296 -6.22022 262 ft 17 kts 343°
2026-04-23 16:01 54.64421 -6.22089 256 ft 20 kts 342°
2026-04-23 16:02 54.64505 -6.22096 253 ft 4 kts 45°
2026-04-23 16:02 54.64517 -6.22075 253 ft 11 kts 43°
2026-04-23 16:02 54.64627 -6.22045 252 ft 18 kts 348°
2026-04-23 16:02 54.64730 -6.22104 249 ft 15 kts 342°
2026-04-23 16:03 54.64835 -6.22161 246 ft 14 kts 343°
2026-04-23 16:03 54.64928 -6.22209 243 ft 13 kts 339°
2026-04-23 16:03 54.65009 -6.22154 240 ft 14 kts 34°
2026-04-23 16:03 54.65051 -6.22066 239 ft 7 kts 45°
2026-04-23 16:04 54.65092 -6.21969 238 ft 12 kts 71°
2026-04-23 16:04 54.65122 -6.21849 237 ft 9 kts 42°
2026-04-23 16:04 54.65160 -6.21847 237 ft 2 kts 348°
2026-04-23 16:04 54.65190 -6.21852 238 ft 1 kts 22°
2026-04-23 16:05 54.65197 -6.21838 239 ft 8 kts 54°
2026-04-23 16:05 54.65208 -6.21801 236 ft 0 kts 63°